Regional Weather Roundup
Issued by NWS Huntsville, AL

Current Version | Previous Version | Text Only | Print | Product List | Glossary On
Versions: 1 2 3 4 5 6 7 8 9 10 11 12 13 14 15 16 17 18 19 20 21 22 23 24 25 26 27 28 29 30 31 32 33 34 35 36 37 38 39 40 41 42 43 44 45 46 47 48 49 50
000
ASUS44 KHUN 120224
RWRHUN

WEATHER ROUNDUP FOR THE TENNESSEE VALLEY
NATIONAL WEATHER SERVICE HUNTSVILLE AL
900 PM CDT FRI JUL 11 2014

ALZ001>004-120300-
NORTHWEST ALABAMA

CITY           SKY/WX    TMP DP  RH WIND       PRES   REMARKS
COURTLAND HCN    N/A     77 N/A N/A CALM        N/A
RUSSELLVILLE     N/A     73 N/A N/A MISG        N/A
SHOALS AIRPORT CLEAR     75  69  81 CALM      30.15R
SHOALS TVA RES   N/A     75 N/A N/A MISG        N/A
$$

ALZ005>007-016-120300-
NORTH CENTRAL ALABAMA

CITY           SKY/WX    TMP DP  RH WIND       PRES   REMARKS
DECATUR AP     CLEAR     74  68  81 CALM      30.14R
HUNTSVILLE AP  CLEAR     81  66  60 CALM      30.14R
MERIDIANVILLE  CLEAR     72  64  78 CALM      30.15R
VINEMONT AP    FAIR      72  70  92 CALM      30.19R
$$

ALZ008>010-120300-
NORTHEAST ALABAMA

CITY           SKY/WX    TMP DP  RH WIND       PRES   REMARKS
ALBERTVILLE    PTCLDY    77  72  83 CALM      30.16R
CROSSVILLE       N/A     72 N/A N/A CALM        N/A
FORT PAYNE     CLEAR    N/A N/A N/A CALM      30.16R
SCOTTSBORO AP  CLEAR     75  70  83 CALM      30.16R
SCOTTSBORO HCN   N/A     75 N/A N/A MISG        N/A
VALLEY HEAD      N/A     73 N/A N/A MISG        N/A
$$

TNZ076-096-097-120300-
SOUTHEASTERN MIDDLE TENNESSEE

CITY           SKY/WX    TMP DP  RH WIND       PRES   REMARKS
FAYETTEVILLE   CLEAR     75  66  73 CALM      30.17R
TULLAHOMA      CLEAR     73  64  73 CALM      30.19R
WINCHESTER     CLEAR     73  70  88 CALM      30.18R
$$

...SURROUNDING SITES...

CITY           SKY/WX    TMP DP  RH WIND       PRES   REMARKS
ATLANTA        MOCLDY    78  71  79 E6        30.17R
ANNISTON       CLEAR     78  74  87 CALM      30.14R
BIRMINGHAM     MOCLDY    81  66  60 N5        30.15R
CHATTANOOGA    PTCLDY    80  65  59 CALM      30.15R
CORINTH        FAIR      75  72  88 CALM      30.14R
DALTON         PTCLDY    77  70  78 CALM      30.17R
GADSDEN        CLEAR     79  68  69 CALM      30.14R
GOLDEN TRNGL   PTCLDY    79  72  78 CALM      30.14R
HALEYVILLE     FAIR      73  69  87 CALM      30.19R
JACKSON TN     CLEAR     76  71  85 CALM      30.14R
LEWISBURG      FAIR      75  68  79 CALM      30.15R
MEMPHIS        PTCLDY    79  71  76 S5        30.14R
MURFREESBORO   FAIR      81  60  48 CALM      30.14R
NASHVILLE      PTCLDY    85  62  46 N7        30.15R
OXFORD MS      FAIR      75  72  88 CALM      30.16S
ROME           PTCLDY    75  70  84 CALM      30.15R
SAVANNAH       CLEAR     73  73 100 CALM      30.15S
TUPELO         CLEAR     80  73  79 CALM      30.13R
TUSCALOOSA     CLEAR     82  70  66 NW3       30.12R
$$

...GULF COAST WEATHER...

CITY           SKY/WX    TMP DP  RH WIND       PRES   REMARKS
GULFPORT       CLOUDY    78  74  87 CALM      30.13R
PASCAGOULA     MOCLDY    75  72  90 CALM      30.13R
MOBILE         CLOUDY    75  75 100 CALM      30.14R
GULF SHORES    CLOUDY    76  72  88 CALM      30.11R
PENSACOLA      LGT RAIN  75  74  96 NW5       30.10R
DESTIN         CLOUDY    84  72  67 CALM      30.09R
PANAMA CITY    PTCLDY    83  76  79 W7        30.11R HX  90
APPALACHICOLA  MOCLDY    81  77  88 CALM      30.11R
$$



USA.gov is the U.S. government's official web portal to all federal, state and local government web resources and services.